Location: Ferchesar
(52.6477°N, 12.4298°E)
Time: 00:46:03
(UTC+01:00)

Vanguard 2 Rocket - Pass Details

Date: 03 December 2021
Orbit: 554 x 3325 km, 32.9° (Epoch: 21 January)

Event Time Altitude Azimuth Distance (km) Brightness Sun altitude
Rises 21:52:04 0° 250° (WSW) 4,379 10.7 -50.9°
Enters shadow 21:55:02 - 238° (WSW) 3,821 10.2 -51.3°
Reaches altitude 10° 21:55:19 10° 236° (WSW) 3,778 - -51.3°
Maximum altitude 22:03:03 24° 188° (S) 3,579 - -52.2°
Drops below altitude 10° 22:14:05 10° 143° (SE) 5,543 - -53.4°
Sets 22:20:21 0° 133° (SE) 6,936 - -54.1°
